Regional Weather Roundup
Issued by NWS Sioux Falls, SD

Home | Current Version | Previous Version | Graphics & Text | Print | Product List | Glossary On
Versions: 1 2 3 4 5 6 7 8 9 10 11 12 13 14 15 16 17 18 19 20 21 22 23 24 25 26 27 28 29 30 31 32 33 34 35 36 37 38 39 40 41 42 43 44 45 46 47 48 49 50
000
ASUS43 KFSD 241810
RWRFSD

WEATHER ROUNDUP FOR SE SOUTH DAKOTA/SW MINNESOTA/NW IOWA
NATIONAL WEATHER SERVICE SIOUX FALLS SD
1200 PM CST MON NOV 24 2014

NOTE: "FAIR" INDICATES FEW OR NO CLOUDS BELOW 12,000 FEET WITH NO
SIGNIFICANT WEATHER AND OR OBSTRUCTIONS TO VISIBILITY.


SDZ038>040-050-052>070-241900-
SOUTHEAST SOUTH DAKOTA

CITY           SKY/WX    TMP DP  RH WIND       PRES   REMARKS
CHAMBERLAIN    SUNNY     26  12  56 NW22G29   29.85R WCI  11
6HR MIN TEMP:  20; 6HR MAX TEMP:  26;

HURON          SUNNY     22  11  62 NW30G40   29.79R WCI   4
6HR MIN TEMP:  17; 6HR MAX TEMP:  22; 6HR PCP: TRACE;

MADISON        FLURRIES  18  10  73 NW28G36   29.69R WCI  -1
MITCHELL       SUNNY     26  12  55 NW28G36   29.81R WCI  10
6HR MIN TEMP:  20; 6HR MAX TEMP:  26; 6HR PCP: TRACE;

SIOUX FALLS    FLURRIES  20  12  71 NW26G32   29.69R WCI   2
6HR MIN TEMP:  19; 6HR MAX TEMP:  21; 6HR PCP: TRACE;

WINNER         FAIR      29  10  45 NW21G29   29.87R WCI  16
YANKTON        SUNNY    N/A N/A N/A NW28G38   29.75S
$$

MNZ071-072-080-081-089-090-097-098-241900-
SOUTHWEST MINNESOTA

CITY           SKY/WX    TMP DP  RH WIND       PRES   REMARKS
FAIRMONT       CLOUDY    18  10  73 NW24G31   29.56R WCI   0
JACKSON        CLOUDY    21  12  68 NW26G37   29.59R WCI   4
LUVERNE        CLOUDY    23  14  68 NW26G35   29.66S WCI   6
MARSHALL       CLOUDY    16   7  67 NW26G37   29.65R WCI  -3
6HR MIN TEMP:  16; 6HR MAX TEMP:  18;

MONTEVIDEO     LGT SNOW  12  10  92 N25G37    29.66R WCI  -8
PIPESTONE      LGT SNOW  18  12  79 NW22G30   29.64R WCI   0
REDWOOD FALLS  FLURRIES  17   8  67 NW28G40   29.61R WCI  -2
TRACY          FLURRIES  17  10  75 NW25G32   29.64R WCI  -1
WINDOM         FLURRIES  18  10  73 NW26G38   29.59R WCI  -1
WORTHINGTON    CLOUDY    19  12  73 NW21G28   29.62R WCI   3
$$

IAZ001>003-012>014-020>022-031-032-NEZ013-014-SDZ071-241900-
NORTHWEST IOWA

CITY           SKY/WX    TMP DP  RH WIND       PRES   REMARKS
CHEROKEE       FLURRIES  23  16  74 NW16G31   29.67R WCI   9
DENISON        CLOUDY    25  16  68 NW20G36   29.66R WCI  11
ESTHERVILLE    CLOUDY    20  12  71 NW30G37   29.59R WCI   1
LE MARS        CLOUDY    23  16  74 NW24G36   29.71R WCI   7
ORANGE CITY    FLURRIES  23  16  74 NW22G29   29.66S WCI   8
SHELDON        FLURRIES  21  14  73 NW25G32   29.64R WCI   4
SIOUX CITY     CLOUDY    25  16  68 NW20G37   29.71R WCI  11
6HR MIN TEMP:  24; 6HR MAX TEMP:  26; 6HR PCP: TRACE;

SPENCER        CLOUDY    23  12  62 NW28G38   29.62R WCI   6
6HR MIN TEMP:  20; 6HR MAX TEMP:  23; 6HR PCP: TRACE;

STORM LAKE     FLURRIES  23  14  68 NW25G36   29.63R WCI   7
$$

ABBREVIATIONS USED IN REMARKS
   TC - TEMPERATURE IN CELSIUS
  WCI - WIND CHILL INDEX
   HX - HEAT INDEX
  VSB - VISIBILITY




USA.gov is the U.S. government's official web portal to all federal, state and local government web resources and services.